Volver al catálogo

NOAA 16 DEB

ActivoSSO
NORAD 41201·DEBRIS·🇺🇸 United States

Lanzado Sep 21, 2000 desde Vandenberg Space Force Base

Loading…

Próximos Pases (próximas 24 horas)

TLE

ActualizadoSource: Space-Track

Época: Sep 13, 2026, 07:33 UTC

1 41201U 00055DE  26256.31487856  .00001474  00000-0  79592-3 0  9992
2 41201  98.7562 291.8073 0043266  78.0761 282.5258 14.13705484552479

Sigue NOAA 16 DEB en tiempo real con AllMySat

Download on the App Store